Wind_Speed
41 38 34 26 23 26 24 22 21 18 15 14 12 8 10 9 8 8 9 8 8 6 6 5 4 5 5 7 8 8 10 11 11 10 10 10 10 9 10 11 11 12 13 15 16 18 19 22 22
43 40 37 31 28 29 26 23 22 20 16 16 15 10 10 11 9 9 9 8 7 8 8 7 5 6 8 9 10 11 14 15 15 15 14 14 14 14 14 15 16 18 19 19 20 22 22 24 26
43 41 36 36 29 33 29 26 23 19 19 16 17 15 13 13 12 10 9 9 6 7 7 10 8 10 11 13 13 14 16 16 16 16 16 16 17 17 18 19 20 20 20 21 23 24 25 27 28
47 40 36 39 30 33 35 29 25 22 20 21 18 18 16 15 15 13 10 9 7 9 10 11 11 12 13 13 13 13 13 13 14 15 17 18 19 20 21 20 20 20 21 23 24 25 27 28 31
51 43 43 40 36 33 34 30 28 25 24 22 20 19 20 17 17 16 13 10 9 10 12 12 14 14 14 13 12 14 14 14 13 13 14 15 16 16 16 17 18 19 21 22 24 27 31 33 33
51 47 40 41 39 34 34 33 31 28 27 25 22 16 20 19 18 17 16 14 12 12 13 13 12 14 15 16 15 16 16 17 18 18 18 18 18 19 19 19 19 21 22 24 25 27 29 32 35
51 52 45 44 40 38 33 31 33 31 29 27 25 22 15 19 21 19 18 19 17 15 14 15 15 15 16 18 19 19 20 20 20 20 20 19 20 19 19 17 18 20 22 23 26 28 30 34 36
51 50 46 45 43 43 37 33 34 32 27 25 25 22 24 17 19 22 22 21 22 21 20 19 19 19 20 21 21 21 23 23 23 23 24 24 23 21 19 21 24 23 26 27 30 33 37 39 42
51 55 52 47 47 46 43 38 37 34 28 25 25 28 25 26 19 20 24 24 24 25 25 25 24 24 24 23 23 22 23 24 25 26 28 27 25 26 27 30 31 31 31 31 33 37 40 43 46
57 54 56 50 50 49 45 40 38 39 30 27 28 31 27 26 26 23 21 26 29 29 28 27 27 27 26 25 25 26 27 28 27 27 28 29 32 32 34 34 35 37 38 40 43 44 49 50 52
63 59 59 57 55 50 47 45 43 41 33 29 30 31 28 26 25 24 28 27 29 32 33 31 31 31 28 28 29 31 30 31 32 33 33 35 36 37 38 40 42 44 45 48 51 52 51 51 52
68 63 58 56 56 51 50 48 48 45 38 36 35 30 29 26 24 24 25 29 31 32 34 34 33 32 31 31 33 34 35 35 37 38 38 40 43 43 44 45 45 48 48 46 45 48 51 55 57
70 64 57 54 54 51 47 47 46 44 37 39 37 32 28 29 27 25 25 26 30 31 33 35 36 35 34 35 37 37 37 37 39 41 38 38 42 44 46 44 45 48 48 51 51 55 55 56 58
69 64 62 60 57 49 48 46 46 41 37 39 40 36 33 30 32 30 29 26 30 31 32 35 36 37 36 36 34 35 36 37 36 39 39 43 47 46 46 47 47 49 53 57 57 58 56 58 62
66 63 62 63 56 53 54 47 45 45 45 43 44 42 39 35 32 32 31 32 35 32 33 34 34 35 33 30 34 37 39 38 40 41 44 45 44 47 51 55 58 61 61 60 59 61 63 66 66
64 63 62 65 61 54 53 53 52 50 47 47 45 45 39 36 37 34 32 35 32 31 27 29 34 33 31 36 36 37 39 40 41 43 44 47 52 58 60 61 61 60 59 60 63 66 67 65 61
75 64 59 58 54 53 55 52 50 51 51 49 46 45 42 39 40 38 38 31 30 31 34 35 33 36 37 36 35 35 36 40 44 50 53 58 61 63 63 62 61 61 63 65 66 64 61 63 65
75 66 60 61 63 55 48 52 55 57 55 52 48 46 45 45 43 45 39 40 42 44 44 39 35 37 38 38 40 45 47 51 54 58 60 62 63 63 62 60 59 60 62 63 63 64 65 65 69
68 67 66 58 60 59 59 56 49 50 51 47 46 46 47 45 46 49 47 44 45 45 43 42 43 43 45 48 51 52 51 53 57 60 61 60 59 57 58 60 61 62 63 64 66 67 69 71 74
75 62 61 62 63 61 63 68 61 55 53 50 50 49 48 48 54 53 55 50 48 44 46 46 46 49 50 52 53 53 54 54 53 53 54 55 54 55 57 59 62 64 66 67 68 70 73 76 79
76 60 59 58 68 65 65 65 58 57 55 50 48 49 52 55 57 56 53 51 50 50 49 50 52 52 54 54 52 50 50 49 51 52 54 56 57 59 61 63 65 68 70 72 74 75 78 81 80
72 68 67 65 66 67 72 67 62 56 57 52 51 49 51 53 53 49 48 47 46 47 51 53 52 53 50 48 49 49 51 51 52 54 56 58 60 64 66 68 70 72 74 77 77 80 82 86 86
79 74 74 66 67 71 73 69 64 64 55 51 53 53 51 47 45 46 47 48 46 46 46 48 49 49 49 49 50 50 51 53 55 57 59 62 63 65 68 72 75 77 79 81 83 85 87 87 88
80 81 75 74 66 70 64 67 67 60 55 55 55 55 54 50 50 48 43 41 42 43 47 49 49 49 50 52 53 54 55 57 59 62 64 65 65 69 75 79 80 80 85 87 85 85 88 90 96
81 82 83 82 78 67 64 63 57 59 59 60 58 54 55 55 54 48 45 43 43 47 49 51 52 53 55 58 57 58 60 61 62 65 69 70 69 76 82 88 85 88 84 83 86 89 91 91 93
79 81 75 71 66 61 67 64 55 59 63 63 62 60 58 58 54 51 49 47 46 48 51 53 55 57 59 60 59 61 62 64 67 71 77 78 79 84 89 93 82 83 81 84 87 92 95 98 101
85 78 70 74 69 70 68 66 64 64 67 68 64 61 59 60 59 57 52 51 53 57 58 58 60 63 64 65 66 67 67 70 74 77 76 78 83 89 93 89 81 83 81 87 90 90 90 93 97
91 83 81 75 68 75 74 69 63 65 66 68 67 63 65 65 62 57 57 58 59 61 62 63 65 67 68 70 71 70 69 69 75 78 86 88 90 94 93 82 84 86 86 90 94 95 97 103 110
89 93 87 83 78 72 78 73 73 69 70 67 72 72 69 66 66 66 67 70 71 68 68 68 70 69 73 76 77 78 77 78 81 85 87 92 97 95 87 86 86 89 91 94 97 98 104 110 113
101 99 94 94 83 82 74 71 73 71 72 73 73 75 76 74 74 75 77 73 72 72 72 72 74 76 79 82 79 80 81 82 83 92 95 99 96 91 88 93 91 92 97 98 97 109 111 115 120
Wind_Direction
202 204 215 219 211 215 216 219 223 225 231 236 244 259 278 280 301 292 270 281 296 286 282 298 320 322 315 320 317 322 324 322 316 313 310 309 311 312 316 317 313 310 307 306 304 306 311 313 313
207 206 210 217 212 206 210 219 225 229 226 232 236 241 269 272 277 302 281 271 282 290 270 273 291 296 298 302 306 311 315 317 313 307 304 305 306 308 310 311 310 308 308 308 310 310 309 310 309
210 212 216 215 206 207 208 219 218 230 229 228 239 239 247 264 262 279 283 280 275 287 281 269 277 284 290 292 301 300 302 297 298 291 291 295 299 302 304 307 306 305 304 304 307 308 306 306 302
206 210 220 217 216 215 214 222 221 226 232 232 234 243 241 249 256 262 268 276 271 265 268 271 277 286 292 298 296 306 312 308 305 297 293 296 296 298 300 300 302 306 306 306 306 303 301 300 299
212 214 219 222 223 222 218 223 228 231 236 235 236 245 239 238 248 253 258 267 263 271 273 276 285 295 295 295 297 306 311 317 319 315 311 306 302 302 303 305 308 307 306 307 305 303 302 304 306
216 214 224 223 221 227 224 228 233 238 239 237 237 240 240 237 244 251 252 258 255 260 271 278 291 301 303 306 310 304 308 308 308 307 308 309 308 307 305 304 309 311 307 306 310 310 311 306 306
217 214 220 222 218 228 227 230 230 237 246 242 241 238 246 246 245 248 253 255 262 264 264 272 282 294 304 309 307 304 306 309 311 312 312 310 304 301 301 301 302 304 306 303 304 306 307 307 309
214 215 221 224 223 226 225 227 229 236 239 240 236 236 241 247 256 251 250 255 258 262 268 275 280 284 289 298 307 303 303 306 306 306 307 307 300 296 290 292 295 294 295 298 303 307 311 310 310
211 217 225 227 223 226 225 228 232 231 235 240 240 240 243 246 252 257 254 257 257 263 272 275 278 280 285 288 296 301 299 303 304 306 301 297 294 293 291 293 293 291 291 292 294 298 302 302 303
217 222 227 225 225 228 225 227 235 237 238 242 257 249 246 247 252 257 263 260 258 262 264 269 272 277 279 283 286 293 295 296 297 300 299 294 295 296 296 299 300 300 294 296 295 300 304 304 306
218 223 223 227 227 227 229 229 232 236 236 245 255 251 245 252 256 260 257 267 268 263 265 267 270 275 282 286 285 285 286 291 294 293 294 294 292 295 297 297 296 296 297 298 302 301 304 304 305
218 226 226 228 227 229 230 232 233 236 236 246 252 248 256 259 264 264 266 264 269 267 267 268 272 275 277 281 283 285 288 289 289 289 291 290 291 292 292 292 297 302 302 304 305 304 303 302 302
221 222 220 227 232 231 231 231 234 237 238 244 244 252 258 263 259 266 269 269 271 274 274 275 276 278 278 281 283 287 289 290 292 293 295 297 297 297 300 302 304 303 303 305 302 302 302 299 299
222 220 222 232 234 232 232 233 235 233 237 237 242 249 258 260 264 266 271 264 277 275 278 280 280 282 282 287 292 294 293 294 298 300 298 303 304 302 303 302 303 302 300 303 304 304 302 300 302
220 219 220 227 229 233 235 236 239 240 240 241 246 250 261 264 262 265 267 270 275 270 273 277 281 283 287 290 294 293 297 294 301 301 297 301 303 302 303 302 304 304 305 305 305 303 304 305 305
211 217 222 229 233 234 237 238 237 238 239 243 248 253 259 260 257 263 266 266 275 273 277 282 280 278 283 295 294 294 293 294 297 298 299 299 300 303 305 304 305 306 305 306 305 306 306 306 307
218 221 219 219 221 233 232 229 231 237 241 246 248 251 254 254 257 258 255 262 270 270 275 284 288 282 285 288 289 290 294 296 296 301 303 302 302 303 305 305 305 307 307 307 307 307 308 309 310
219 222 218 218 223 224 229 232 232 236 237 241 246 248 253 256 258 252 253 261 273 279 276 281 286 286 288 291 293 295 296 298 300 300 301 301 301 301 303 306 308 309 308 307 308 309 310 311 311
213 213 215 219 221 224 215 227 231 234 239 241 241 244 250 254 250 251 254 261 270 273 275 280 283 283 287 288 290 293 295 295 296 296 299 301 302 305 306 308 309 310 310 310 310 311 311 310 312
214 218 221 221 222 224 224 220 229 239 244 241 244 248 252 249 248 254 255 265 270 269 271 276 279 283 285 289 289 291 293 296 300 300 301 304 307 309 310 311 310 310 310 310 309 312 314 314 312
217 213 211 221 224 227 229 229 229 233 240 245 248 252 248 247 248 254 263 267 269 270 272 276 280 280 283 287 289 290 293 296 299 301 302 305 307 308 308 308 308 309 309 311 312 313 314 313 310
216 215 218 221 224 227 229 232 238 240 242 245 249 251 251 253 255 258 259 266 270 270 272 274 276 280 283 285 290 292 295 295 296 298 301 303 306 310 311 310 310 311 312 312 312 313 313 313 310
218 220 222 220 225 229 229 232 238 240 242 245 249 252 255 257 260 261 262 266 272 275 276 277 280 283 286 288 289 289 290 293 295 297 301 304 308 312 315 315 314 314 315 314 313 312 313 312 311
221 221 222 224 223 229 232 233 237 238 241 246 249 253 256 259 264 264 263 267 270 270 272 275 279 283 285 286 287 288 291 294 297 301 303 306 310 314 318 318 315 313 313 313 314 312 312 314 316
222 223 226 229 229 230 231 234 230 241 243 247 250 254 257 261 261 259 263 266 266 270 272 274 277 282 283 282 284 288 292 297 301 304 306 306 311 314 315 317 314 313 314 315 314 314 312 313 313
222 223 225 230 236 231 224 232 237 247 244 249 252 254 256 256 256 258 262 265 267 270 274 276 278 279 280 282 287 290 295 297 301 305 308 308 309 311 313 316 314 315 314 312 311 313 315 311 308
223 226 229 232 225 223 226 231 238 245 247 248 251 250 248 251 255 260 262 264 265 267 271 274 277 279 283 287 289 293 297 301 303 305 310 308 307 308 312 314 313 313 311 312 314 313 315 316 315
221 221 216 220 224 234 227 232 237 242 244 246 247 245 247 250 254 256 261 265 268 271 270 275 281 284 288 291 293 294 297 303 306 306 303 306 307 310 314 310 312 314 311 308 313 312 320 322 326
222 223 220 216 217 228 229 233 235 238 241 242 246 247 249 250 255 261 264 268 271 271 271 275 281 287 292 294 293 293 296 300 303 301 305 307 309 311 309 308 310 311 311 309 309 314 317 319 319
225 225 224 223 224 228 230 235 237 241 243 245 246 247 248 251 257 262 267 269 267 268 274 284 286 285 292 294 295 296 298 299 299 306 311 311 311 309 308 308 307 310 309 307 306 309 319 318 318
Height
10822 10828 10833 10838 10843 10847 10850 10852 10854 10856 10857 10859 10861 10863 10864 10865 10865 10865 10865 10865 10864 10864 10864 10865 10866 10867 10867 10867 10867 10867 10867 10866 10866 10865 10865 10864 10864 10863 10862 10861 10860 10859 10857 10856 10854 10852 10851 10849 10846
10817 10822 10827 10832 10837 10841 10845 10848 10850 10852 10854 10856 10858 10860 10862 10863 10864 10863 10864 10864 10863 10864 10864 10864 10865 10865 10865 10865 10866 10865 10865 10865 10864 10864 10863 10862 10862 10861 10860 10859 10857 10856 10854 10852 10850 10849 10847 10845 10843
10811 10817 10823 10827 10831 10837 10840 10843 10847 10849 10851 10853 10855 10857 10859 10860 10861 10862 10862 10862 10863 10863 10863 10863 10863 10863 10863 10863 10863 10864 10862 10862 10861 10860 10859 10859 10859 10858 10857 10855 10854 10852 10851 10849 10847 10846 10844 10841 10839
10805 10812 10817 10821 10827 10832 10836 10839 10843 10846 10848 10850 10851 10854 10856 10858 10859 10860 10860 10861 10862 10862 10862 10862 10862 10862 10861 10861 10861 10861 10860 10860 10859 10858 10857 10857 10856 10855 10854 10852 10850 10849 10847 10846 10844 10842 10839 10836 10833
10801 10806 10811 10815 10821 10827 10831 10835 10838 10842 10845 10847 10848 10850 10852 10855 10856 10857 10859 10859 10859 10860 10860 10860 10860 10860 10859 10859 10859 10859 10858 10858 10857 10856 10855 10854 10852 10851 10850 10848 10847 10845 10843 10842 10840 10838 10835 10832 10828
10795 10801 10805 10808 10814 10820 10825 10829 10833 10837 10840 10843 10845 10847 10849 10851 10853 10854 10856 10857 10857 10857 10858 10858 10858 10857 10857 10856 10856 10857 10856 10855 10855 10854 10852 10851 10850 10849 10847 10845 10844 10842 10839 10837 10835 10832 10829 10826 10822
10788 10794 10796 10803 10809 10813 10819 10825 10828 10832 10836 10839 10840 10843 10845 10847 10849 10851 10852 10854 10855 10855 10854 10855 10855 10855 10855 10854 10854 10854 10853 10852 10851 10850 10849 10847 10846 10844 10843 10841 10839 10837 10835 10832 10829 10826 10823 10820 10817
10781 10787 10791 10797 10803 10806 10814 10819 10822 10827 10832 10834 10836 10838 10841 10843 10845 10847 10848 10850 10851 10852 10852 10852 10852 10852 10852 10852 10851 10851 10850 10849 10848 10846 10845 10844 10842 10840 10839 10837 10835 10831 10829 10826 10824 10822 10819 10815 10812
10771 10780 10785 10790 10795 10798 10806 10811 10817 10821 10826 10829 10831 10834 10837 10838 10840 10842 10844 10846 10847 10848 10848 10849 10849 10849 10849 10849 10848 10847 10846 10845 10844 10843 10841 10839 10837 10836 10834 10831 10829 10826 10824 10821 10817 10815 10812 10808 10805
10766 10772 10776 10782 10787 10793 10800 10806 10812 10816 10821 10824 10827 10829 10832 10834 10836 10837 10839 10841 10842 10843 10843 10844 10844 10844 10844 10844 10843 10842 10841 10840 10839 10838 10836 10834 10832 10830 10827 10826 10823 10821 10818 10815 10811 10808 10805 10801 10796
10758 10762 10768 10775 10781 10788 10794 10801 10805 10809 10816 10819 10822 10824 10826 10829 10831 10832 10834 10835 10836 10837 10838 10839 10839 10839 10839 10839 10838 10837 10835 10834 10833 10832 10831 10829 10826 10824 10822 10820 10817 10814 10811 10808 10803 10799 10795 10791 10786
10749 10754 10764 10768 10774 10781 10786 10794 10799 10803 10810 10813 10816 10818 10820 10823 10825 10828 10829 10830 10830 10831 10832 10833 10833 10834 10833 10833 10832 10830 10829 10828 10827 10826 10824 10822 10820 10818 10816 10813 10810 10806 10803 10799 10795 10790 10784 10780 10776
10739 10746 10755 10761 10766 10774 10781 10787 10793 10799 10804 10806 10810 10812 10815 10817 10820 10823 10824 10825 10825 10826 10827 10827 10827 10827 10827 10827 10825 10824 10823 10822 10820 10818 10817 10815 10812 10809 10807 10805 10802 10799 10794 10789 10785 10781 10776 10770 10765
10728 10736 10746 10752 10758 10767 10774 10781 10787 10791 10796 10800 10804 10806 10809 10812 10815 10817 10819 10819 10820 10820 10821 10822 10822 10821 10820 10820 10819 10817 10816 10815 10813 10811 10809 10807 10805 10802 10800 10797 10794 10790 10785 10779 10773 10768 10764 10759 10753
10718 10728 10737 10743 10750 10759 10767 10777 10781 10784 10788 10793 10795 10799 10803 10807 10809 10811 10813 10814 10814 10815 10816 10816 10816 10815 10815 10814 10813 10811 10810 10809 10807 10805 10803 10800 10798 10795 10792 10788 10783 10777 10772 10767 10761 10756 10750 10744 10738
10707 10716 10729 10738 10743 10750 10760 10764 10770 10776 10780 10785 10788 10792 10796 10800 10802 10805 10807 10808 10809 10810 10810 10810 10809 10809 10808 10806 10805 10804 10803 10802 10800 10798 10795 10792 10789 10785 10781 10777 10772 10766 10760 10754 10749 10743 10738 10732 10725
10698 10713 10724 10729 10737 10742 10751 10753 10762 10767 10772 10777 10781 10784 10788 10792 10794 10798 10800 10802 10803 10804 10804 10804 10803 10802 10801 10799 10798 10798 10797 10796 10793 10789 10785 10781 10777 10773 10768 10764 10759 10753 10747 10741 10736 10730 10725 10719 10712
10702 10711 10716 10722 10729 10735 10741 10745 10752 10756 10761 10768 10775 10778 10780 10783 10788 10790 10792 10795 10797 10797 10797 10796 10795 10795 10793 10792 10791 10791 10789 10786 10782 10779 10774 10770 10766 10761 10757 10752 10747 10741 10735 10730 10724 10719 10713 10708 10700
10684 10691 10700 10708 10715 10724 10732 10735 10739 10745 10753 10761 10765 10768 10772 10775 10780 10780 10784 10787 10789 10790 10789 10788 10788 10787 10786 10784 10782 10780 10779 10776 10772 10768 10764 10760 10756 10752 10747 10742 10737 10731 10725 10719 10714 10708 10702 10695 10687
10674 10684 10695 10702 10708 10715 10720 10727 10733 10740 10746 10752 10757 10761 10762 10767 10769 10771 10775 10778 10780 10780 10780 10780 10780 10779 10777 10775 10773 10770 10769 10765 10762 10758 10755 10751 10746 10742 10736 10731 10726 10720 10714 10708 10702 10695 10688 10681 10673
10668 10681 10685 10692 10698 10705 10711 10719 10729 10735 10739 10744 10749 10751 10754 10756 10760 10763 10766 10768 10769 10769 10770 10770 10770 10769 10768 10766 10763 10761 10758 10755 10752 10748 10745 10740 10736 10731 10727 10721 10715 10708 10702 10695 10688 10680 10673 10666 10657
10661 10671 10676 10680 10688 10699 10702 10715 10720 10727 10732 10737 10739 10741 10743 10747 10751 10754 10756 10757 10757 10758 10758 10760 10759 10758 10758 10755 10753 10751 10748 10745 10741 10737 10734 10730 10726 10721 10716 10710 10703 10695 10689 10682 10674 10666 10658 10650 10641
10651 10660 10664 10671 10677 10685 10694 10707 10712 10719 10725 10727 10728 10729 10734 10738 10742 10744 10745 10747 10747 10747 10748 10748 10748 10748 10746 10745 10743 10740 10737 10734 10731 10728 10724 10719 10714 10709 10704 10696 10689 10682 10675 10667 10659 10651 10641 10632 10621
10637 10646 10650 10659 10662 10669 10689 10698 10702 10711 10714 10717 10719 10722 10725 10729 10732 10733 10735 10736 10737 10737 10737 10738 10738 10738 10736 10735 10733 10730 10728 10724 10721 10717 10713 10707 10701 10696 10689 10682 10675 10668 10660 10651 10642 10633 10623 10613 10602
10624 10632 10638 10643 10651 10669 10678 10686 10702 10698 10705 10707 10710 10714 10716 10718 10719 10722 10725 10726 10727 10727 10727 10728 10728 10728 10727 10725 10722 10720 10716 10713 10709 10706 10700 10693 10687 10681 10674 10668 10660 10651 10641 10633 10625 10615 10606 10594 10583
10615 10620 10632 10642 10654 10663 10668 10678 10690 10689 10694 10695 10697 10702 10705 10707 10710 10713 10714 10716 10716 10716 10717 10718 10718 10717 10715 10714 10712 10709 10706 10702 10697 10692 10686 10680 10674 10667 10659 10651 10642 10634 10625 10617 10607 10597 10587 10576 10563
10605 10609 10621 10629 10639 10646 10657 10666 10675 10679 10679 10682 10684 10688 10693 10695 10698 10702 10705 10706 10707 10706 10707 10706 10706 10706 10704 10702 10700 10696 10692 10688 10682 10677 10672 10667 10659 10651 10642 10634 10626 10618 10609 10599 10590 10579 10568 10555 10542
10593 10599 10605 10615 10627 10635 10646 10656 10664 10667 10666 10668 10673 10676 10678 10682 10687 10690 10693 10694 10695 10695 10695 10694 10693 10692 10690 10689 10686 10682 10678 10673 10669 10664 10657 10650 10643 10635 10627 10618 10610 10601 10591 10582 10572 10560 10547 10534 10520
10579 10587 10593 10603 10612 10622 10633 10643 10649 10653 10654 10656 10658 10661 10664 10669 10674 10678 10680 10681 10683 10683 10682 10681 10680 10678 10677 10675 10672 10668 10664 10658 10653 10649 10642 10635 10626 10617 10609 10601 10593 10583 10574 10565 10554 10540 10527 10513 10499
10565 10575 10582 10587 10602 10611 10621 10630 10634 10639 10642 10641 10644 10644 10649 10655 10660 10663 10665 10668 10669 10669 10669 10669 10667 10665 10662 10660 10655 10652 10648 10643 10637 10631 10623 10615 10606 10599 10591 10583 10575 10566 10557 10545 10534 10522 10507 10494 10479